Flag for Norway Weather past 2 weeks in Brumunddal, Norway

Now
50 °F

Cool.


Feels Like: 50 °F
Forecast: 49 / 60 °F
Wind: 1 mph from Northwest

Location: Lillehammer-Saetherengen

Current Time: Aug 23, 2014 at 7:34:16 AM

Latest Report: Aug 23, 2014 at 6:00 AM


Visibility: N/A

Pressure: 29.59 "Hg

Humidity: 95%

Dew point: 49 °F

Location of BrumunddalLocation

Historic Weather in Brumunddal — Graph

°F

Brumunddal temperature yesterday

Maximum temperature yesterday: 60 °F (at 5:00 PM)
Minimum temperature yesterday: 48 °F (at 5:00 AM)
Average temperature yesterday: 53 °F

Past Weeks' High & Low Weather Summary

 TemperatureHumidityPressure
High75 °F (Aug 8, 4:00 PM)96% (Aug 18, 9:00 AM)29.89 "Hg (Aug 18, 9:00 AM)
Low45 °F (Aug 21, 7:00 AM)40% (Aug 21, 5:00 PM)29.15 "Hg (Aug 18, 3:00 PM)
Average57 °F76%29.55 "Hg
* Reported Aug 8 6:00 AM — Aug 23 6:00 AM, Brumunddal, Weather by CustomWeather, © 2014

Note: Actual official high and low records may vary slightly from our data, if they occured in-between our weather recording intervals... More about our weather records

Advertising

Brumunddal weather history for previous 24 hours

 ConditionsComfort  
Time TempWeatherWind HumidityBarometerVisibility
6:00 AM
Aug 23
50 °FCool.1 mph95%29.59 "HgN/A
5:00 AM50 °FCool.1 mph94%29.60 "HgN/A
4:00 AM51 °FCool.No wind94%29.60 "HgN/A
3:00 AM51 °FCool.1 mph93%29.61 "HgN/A
2:00 AM52 °FCool.1 mph85%29.62 "HgN/A
1:00 AM52 °FCool.1 mph87%29.62 "HgN/A
12:00 AM52 °FCool.No wind86%29.63 "HgN/A
11:00 PM
Aug 22
53 °FCool.2 mph82%29.63 "HgN/A
10:00 PM53 °FCool.2 mph81%29.63 "HgN/A
9:00 PM54 °FCool.3 mph76%29.62 "HgN/A
8:00 PM56 °FCool.2 mph72%29.62 "HgN/A
7:00 PM60 °FCool.2 mph60%29.60 "HgN/A
6:00 PM59 °FCool.2 mph65%29.61 "HgN/A
5:00 PM60 °FCool.2 mph62%29.61 "HgN/A
4:00 PM59 °FCool.2 mph63%29.62 "HgN/A
3:00 PM57 °FCool.2 mph76%29.64 "HgN/A
2:00 PM58 °FCool.2 mph71%29.65 "HgN/A
1:00 PM56 °FCool.1 mph79%29.65 "HgN/A
12:00 PM54 °FCool.1 mph91%29.66 "HgN/A
11:00 AM51 °FCool.2 mph94%29.67 "HgN/A
10:00 AM50 °FCool.No wind93%29.67 "HgN/A
9:00 AM50 °FCool.1 mph92%29.66 "HgN/A
8:00 AM49 °FCool.1 mph94%29.66 "HgN/A
7:00 AM48 °FCool.1 mph94%29.66 "HgN/A
Weather by CustomWeather, © 2014

See weather overviewHow to use our weather pages